Home   Weather   Eastbourne   Past weeks

Flag for United Kingdom Past Weather in Eastbourne, England, United Kingdom — Yesterday and Last 2 Weeks

Now
36 °F

Chilly.


Feels Like: 29 °F
Forecast: 39 / 49 °F
Wind: 9 mph from North

Location: Herstmonceux

Current Time: Apr 26, 2017 at 5:36:13 am

Latest Report: Apr 26, 2017 at 4:00 am


Visibility: 12 mi

Pressure: 29.97 "Hg

Humidity: 88%

Dew Point: 32 °F

Location of EastbourneLocation

Past Weather in Eastbourne — Graph

°F

Eastbourne Temperature Yesterday

Maximum temperature yesterday: 52 °F (at 5:00 pm)
Minimum temperature yesterday: 33 °F (at 6:00 am)
Average temperature yesterday: 43 °F

High & Low Weather Summary for the Past Weeks

 TemperatureHumidityPressure
High60 °F (Apr 12, 5:00 pm)100% (Apr 24, 3:00 am)30.65 "Hg (Apr 24, 3:00 am)
Low33 °F (Apr 25, 6:00 am)31% (Apr 25, 5:00 pm)29.87 "Hg (Apr 24, 8:00 pm)
Average48 °F73%30.24 "Hg
* Reported Apr 11 4:00 am — Apr 26 4:00 am, Eastbourne, Weather by CustomWeather, © 2017

Note: Actual official high and low records may vary slightly from our data, if they occured in-between our weather recording intervals... More about our weather records

Advertising

Eastbourne Weather History for the Previous 24 Hours

Scroll right to see more
 ConditionsComfort  
Time TempWeatherWind HumidityBarometerVisibility
4:00 am
Wed, Apr 26
36 °FChilly.9 mph88%29.97 "Hg12 mi
3:00 am36 °FChilly.6 mph87%29.98 "Hg11 mi
2:00 am36 °FChilly.5 mph85%29.98 "Hg18 mi
1:00 am37 °FChilly.5 mph83%29.98 "Hg12 mi
12:00 am37 °FChilly.3 mph79%29.97 "Hg16 mi
11:00 pm
Tue, Apr 25
38 °FChilly.6 mph75%29.96 "Hg12 mi
10:00 pm40 °FQuite cool.6 mph69%29.95 "Hg10 mi
9:00 pm42 °FQuite cool.7 mph56%29.93 "Hg28 mi
8:00 pm46 °FCool.12 mph50%29.91 "Hg31 mi
7:00 pm50 °FSmoke.6 mph33%29.90 "Hg5 mi
6:00 pm50 °FCool.7 mph32%29.90 "Hg28 mi
5:00 pm52 °FCool.5 mph31%29.90 "Hg22 mi
3:00 pm48 °FCool.7 mph38%29.93 "Hg22 mi
1:00 pm50 °FCool.3 mph37%29.93 "Hg18 mi
12:00 pm47 °FCool.7 mph38%29.94 "Hg15 mi
11:00 am46 °FCool.9 mph48%29.94 "Hg22 mi
10:00 am43 °FQuite cool.10 mph50%29.93 "Hg18 mi
9:00 am42 °FQuite cool.9 mph57%29.93 "Hg16 mi
8:00 am37 °FChilly.5 mph69%29.93 "Hg22 mi
7:00 am34 °FChilly.6 mph72%29.93 "Hg19 mi
6:00 am33 °FChilly.5 mph73%29.92 "Hg22 mi
5:00 am35 °FChilly.5 mph68%29.91 "Hg18 mi
Weather by CustomWeather, © 2017

See weather overviewHow to use our weather pages